Regional Weather Roundup
Issued by NWS

Home | Current Version | Previous Version | Graphics & Text | Print | Product List | Glossary On
Versions: 1 2 3 4 5 6 7 8 9 10 11 12 13 14 15 16 17 18 19 20 21 22 23 24 25 26 27 28 29 30 31 32 33 34 35 36 37 38 39 40 41 42 43 44 45 46 47 48 49
000
ASUS45 KSLC 262310
RWRUT

UTAH REGIONAL WEATHER ROUNDUP
NATIONAL WEATHER SERVICE SALT LAKE CITY UT
400 PM MST MON JAN 26 2015

UTZ001>011-023>025-270000-

NORTHERN UTAH

CITY           SKY/WX    TMP DP  RH WIND       PRES   REMARKS
BRIGHAM CITY   SUNNY     51  35  55 NW6       30.21F
HILL AFB       SUNNY     49  27  42 NW8       30.20F
LOGAN          SUNNY     46  35  65 CALM      30.24F
OGDEN          SUNNY     49  35  58 NW8       30.20F
PROVO AIRPORT  NOT AVBL
SALT LAKE CITY SUNNY     50  35  56 NW5       30.22F
VERNAL         SUNNY     48  24  39 CALM      30.34F
WENDOVER       SUNNY     45  32  61 SW3       30.25S
HEBER CITY     SUNNY     45  30  57 CALM      30.24F
WEST JORDAN    SUNNY     50  37  62 NW3       30.22F

$$

UTZ012>022-026-027-270000-

SOUTHERN/CENTRAL UTAH

CITY           SKY/WX    TMP DP  RH WIND       PRES   REMARKS
BLANDING       SUNNY     54  23  30 CALM      30.37S
BRYCE CANYON   MOSUNNY   50  24  36 S8G17     30.33S
CEDAR CITY     PTSUNNY   54  32  43 NE5       30.21F
DELTA          SUNNY     50  34  53 S7        30.23F
MILFORD        MOSUNNY   53  34  48 NE6       30.22S
MOAB/CYNLANDS  SUNNY     52  29  41 NW8       30.25F
PRICE          SUNNY     56  24  29 SE7       30.26F
ST GEORGE      CLEAR     64  30  27 SW3       30.15F
KANAB          PTSUNNY   55  25  30 NE15      30.26F

$$

REGIONAL REPORTS     COLORADO/ARIZONA

CITY           SKY/WX    TMP DP  RH WIND       PRES   REMARKS
CRAIG, CO      SUNNY     40  26  57 CALM      30.34F
GRAND JUNCTION SUNNY     57  25  29 S8        30.25F
RIFLE          SUNNY     55  25  31 S5        30.29F
MONTROSE       SUNNY     56  24  29 CALM      30.30F
CORTEZ         SUNNY     56  25  30 SW10      30.30S
PAGE, AZ       MOSUNNY   54  26  34 CALM      30.25F
GRAND CANYON   MOSUNNY   56  22  26 E10       30.26S
KINGMAN        CLOUDY    61  23  23 SW10      30.15S
FLAGSTAFF      MOSUNNY   52  25  35 E7        30.27S

$$

REGIONAL REPORTS    NEVADA/IDAHO/WYOMING

CITY           SKY/WX    TMP DP  RH WIND       PRES   REMARKS
LAS VEGAS, NV  PTSUNNY   68  30  24 S5        30.06S
ELY            MOSUNNY   56  26  31 N7        30.21F
ELKO           SUNNY     63  31  30 CALM      30.15S
POCATELLO, ID  SUNNY     48  38  68 NE14      30.24F
BURLEY         SUNNY     49  36  61 E15       30.17F
EVANSTON, WY   MOSUNNY   48  31  51 E3        30.30F
ROCK SPRINGS   SUNNY     52  28  39 NE5       30.30F
KEMMERER       SUNNY     48  25  40 CALM      30.32F

$$


USA.gov is the U.S. government's official web portal to all federal, state and local government web resources and services.